Regional Weather Roundup
Issued by NWS Spokane, WA

Home | Current Version | Previous Version | Text Only | Print | Product List | Glossary On
Versions: 1 2 3 4 5 6 7 8 9 10 11 12 13 14 15 16 17 18 19 20 21 22 23 24 25 26 27 28 29 30 31 32 33 34 35 36 37 38 39 40 41 42 43 44 45 46 47 48 49 50
000
NZUS01 KOTX 251410
RWROTX
EASTERN WASHINGTON/NORTHERN IDAHO ROUNDUP
NATIONAL WEATHER SERVICE, SPOKANE WA
700 AM PDT SAT APR 25 2015

Note: "fair" indicated few or no clouds below 12,000 feet with no
significant weather and/or obstructions to visibility.

...NORTHEAST WASHINGTON AND NORTHERN IDAHO PANHANDLE...

CITY           SKY/WX    TMP DP  RH WIND       PRES   REMARKS
SPOKANE INTL   CLOUDY    37  31  78 S7        29.83R
SPOKANE DOWNTO CLOUDY    43  34  70 CALM      29.85R
COEUR D ALENE  PTSUNNY   39  34  81 SE8       29.86R
DEER PARK      CLOUDY    38  33  82 S3        29.85R
SANDPOINT      PTSUNNY   34  34 100 CALM      29.86R
BONNERS FERRY  PTSUNNY   32  32 100 CALM      29.85R

...SOUTHEAST WASHINGTON AND SOUTHERN IDAHO PANHANDLE...

CITY           SKY/WX    TMP DP  RH WIND       PRES   REMARKS
WALLA WALLA    PTSUNNY   47  36  65 SW10      29.88R
PULLMAN/MOSCOW CLOUDY    38  32  79 CALM      29.86S
LEWISTON       MOSUNNY   42  33  70 CALM      29.87R
LOWELL           N/A     38  35  89 VRB3      29.91R

...COLUMBIA BASIN...

CITY           SKY/WX    TMP DP  RH WIND       PRES   REMARKS
EPHRATA        CLOUDY    38  31  76 E6        29.83R
MOSES LAKE     CLOUDY    38  33  82 CALM      29.84R
TRI CITIES     PTSUNNY   46  37  71 SW9       29.89R
HERMISTON      PTSUNNY   44  34  67 S5        29.89R
PENDLETON      PTSUNNY   42  35  76 S3        29.88R

...EAST SLOPES CASCADES...

CITY           SKY/WX    TMP DP  RH WIND       PRES   REMARKS
THE DALLES     CLOUDY    45  40  82 NW6       29.92R
YAKIMA         CLOUDY    39  32  76 W5        29.86R
ELLENSBURG     CLOUDY    37  30  75 NW9       29.84R
WENATCHEE      CLOUDY    42  30  62 W5        29.84R
OMAK           CLOUDY    41  32  70 N8        29.83R

...SOUTHERN BRITISH COLUMBIA...

CITY           SKY/WX    TMP DP  RH WIND       PRES   REMARKS
PENTICTON      PTSUNNY   41  34  75 N6        29.86R
CASTLEGAR      LGT RAIN  37  36  93 SE3       29.86R
CRANBROOK      PTSUNNY   32  27  80 NW2       29.84R

...WESTERN MONTANA...

CITY           SKY/WX    TMP DP  RH WIND       PRES   REMARKS
MISSOULA       SUNNY     35  26  69 CALM      29.85S

...NEIGHBORING CITIES...

CITY           SKY/WX    TMP DP  RH WIND       PRES   REMARKS
SEATTLE        MOCLDY    43  39  86 SE5       29.94R
CALGARY        CLOUDY    36  30  80 NW10      29.82R



USA.gov is the U.S. government's official web portal to all federal, state and local government web resources and services.